Location: Thompson
(55.7500°N, 97.8670°W)
Time: 06:09:16
(UTC-05:00)

Cosmos 1666 - Visible Passes

Search period start: 30 July 2016 00:00
Search period end: 09 August 2016 00:00
Orbit: 502 x 529 km, 82.5° (Epoch: 29 July)

Date Brightness Start Highest point End Pass type
(mag) Time Alt. Az. Time Alt. Az. Time Alt. Az.
30 Jul 4.7 01:25:46 14° ESE 01:27:29 18° E 01:30:07 10° NE visible
30 Jul 3.0 03:00:46 24° SW 03:02:51 54° WNW 03:06:35 10° N visible
31 Jul 4.9 01:10:48 13° ESE 01:12:24 16° E 01:14:43 10° NE visible
31 Jul 2.8 02:45:48 28° SSW 02:47:40 64° WNW 02:51:27 10° N visible
31 Jul 5.2 04:23:41 10° WNW 04:24:13 10° NW 04:24:44 10° NW visible
01 Aug 5.0 00:55:50 11° ESE 00:57:20 14° E 00:59:15 10° NE visible
01 Aug 2.6 02:30:50 32° SSW 02:32:30 76° WNW 02:36:18 10° N visible
01 Aug 5.1 04:07:33 10° WNW 04:08:57 12° NW 04:10:21 10° NW visible
02 Aug 5.1 00:40:55 10° ESE 00:42:17 12° E 00:43:37 10° ENE visible
02 Aug 2.6 02:15:51 35° SSW 02:17:21 89° WNW 02:21:09 10° NNE visible
02 Aug 5.1 03:51:48 10° W 03:53:41 13° WNW 03:55:35 10° NNW visible
03 Aug 2.6 02:00:51 38° S 02:02:11 77° E 02:05:58 10° NNE visible
03 Aug 5.0 03:36:11 10° W 03:38:26 15° WNW 03:40:42 10° NNW visible
04 Aug 2.7 01:45:51 40° SSE 01:47:02 65° E 01:50:48 10° NNE visible
04 Aug 4.8 03:20:51 11° W 03:23:11 17° WNW 03:25:44 10° NNW visible
05 Aug 3.0 01:30:50 39° SSE 01:31:54 54° E 01:35:36 10° NNE visible
05 Aug 4.7 03:05:50 13° WSW 03:07:57 19° WNW 03:10:45 10° NNW visible
06 Aug 3.2 01:15:49 37° SE 01:16:46 46° E 01:20:23 10° NNE visible
06 Aug 4.5 02:50:48 16° WSW 02:52:43 22° WNW 02:55:42 10° NNW visible
07 Aug 3.4 01:00:46 33° SE 01:01:38 39° E 01:05:10 10° NNE visible
07 Aug 4.3 02:35:46 18° WSW 02:37:28 25° WNW 02:40:40 10° N visible
08 Aug 3.6 00:45:44 30° ESE 00:46:30 33° E 00:49:55 10° NNE visible
08 Aug 4.1 02:20:43 21° WSW 02:22:15 29° WNW 02:25:36 10° N visible
